This is the latest recevied weather packets stored in our database for station/object WB4ROX. If no packets are shown the sender has not sent any weather packets the latest 10 day(s).
| Time | Temp. | Humidity | Pressure | Rain* | Wind** | Luminosity | Snow |
|---|---|---|---|---|---|---|---|
| 1777771388 | 1.67° C | 69% | 1015.2 hPa | 0 mm | - | 0 W/m² | - |
| 1777771084 | 1.67° C | 69% | 1015 hPa | 0 mm | - | 0 W/m² | - |
| 1777770781 | 2.22° C | 69% | 1015 hPa | 0 mm | - | 0 W/m² | - |
| 1777770477 | 2.22° C | 68% | 1015 hPa | 0 mm | - | 0 W/m² | - |
| 1777770175 | 2.22° C | 68% | 1014.8 hPa | 0 mm | - | 0 W/m² | - |
| 1777769872 | 2.22° C | 68% | 1014.7 hPa | 0 mm | - | 0 W/m² | - |
| 1777769569 | 2.22° C | 67% | 1015 hPa | 0 mm | - | 0 W/m² | - |
| 1777769265 | 2.22° C | 66% | 1014.6 hPa | 0 mm | - | 0 W/m² | - |
| 1777768963 | 2.22° C | 66% | 1014.7 hPa | 0 mm | - | 0 W/m² | - |
| 1777768660 | 2.78° C | 65% | 1014.8 hPa | 0 mm | - | 0 W/m² | - |
| 1777768357 | 2.78° C | 64% | 1014.6 hPa | 0 mm | - | 0 W/m² | - |
| 1777768054 | 2.78° C | 64% | 1014.8 hPa | 0 mm | - | 1 W/m² | - |
| 1777767751 | 2.78° C | 62% | 1014.6 hPa | 0 mm | - | 1 W/m² | - |
| 1777767447 | 2.78° C | 61% | 1014.5 hPa | 0 mm | - | 2 W/m² | - |
| 1777767143 | 3.33° C | 62% | 1014.6 hPa | 0 mm | - | 4 W/m² | - |
| 1777766842 | 3.33° C | 61% | 1014.5 hPa | 0 mm | - | 6 W/m² | - |
| 1777766539 | 3.89° C | 60% | 1014.6 hPa | 0 mm | - | 10 W/m² | - |
| 1777766235 | 3.89° C | 59% | 1014.4 hPa | 0 mm | - | 16 W/m² | - |
| 1777765933 | 3.89° C | 59% | 1014.7 hPa | 0 mm | - | 21 W/m² | - |
| 1777765629 | 3.89° C | 59% | 1014.6 hPa | 0 mm | - | 26 W/m² | - |
| 1777765327 | 4.44° C | 59% | 1014.5 hPa | 0 mm | - | 32 W/m² | - |
| 1777765022 | 4.44° C | 59% | 1014.5 hPa | 0 mm | - | 43 W/m² | - |
| 1777764720 | 4.44° C | 59% | 1014.6 hPa | 0 mm | - | 42 W/m² | - |
| 1777764415 | 4.44° C | 58% | 1014.5 hPa | 0 mm | - | 52 W/m² | - |
| 1777764113 | 4.44° C | 58% | 1014.3 hPa | 0 mm | - | 66 W/m² | - |
* Rain latest hour (hover to see other rain measurements)
** Current wind speed in m/s (hover to see current wind gust speed)